User: anonymous   Login
Location: Unspecified
(0.0000°N, 0.0000°E)
Time: 13:13:36
(UTC+00:00)
Language:

FALCONSAT 3 - Orbit

View from above orbital plane
View from above orbital plane
View from above satellite
View from above satellite

Ground track
Ground track

The orbit data is extracted from the following two-line orbital elements,

1 30776U 07006E   19084.93193656 +.00002619 +00000-0 +74857-4 0  9993
2 30776 035.4349 271.4768 0002062 044.0402 316.0489 15.35790559667641
Epoch (UTC): 25 March 2019 22:21:59
Eccentricity: 0.0002062
inclination: 35.4349°
perigee height: 457 km
apogee height: 460 km
right ascension of ascending node: 271.4768°
argument of perigee: 44.0402°
revolutions per day: 15.35790559
mean anomaly at epoch: 316.0489°
orbit number at epoch: 66764

The dashed part of the orbit path shows where the satellite is in the earth's shadow,  

DLR